Regional Weather Roundup
Issued by NWS

Home | Current Version | Previous Version | Graphics & Text | Print | Product List | Glossary On
Versions: 1 2 3 4 5 6 7 8 9 10 11 12 13 14 15 16 17 18 19 20 21 22 23 24 25 26 27
000
ASUS45 KCYS 010110
RWRWY

WYOMING REGIONAL WEATHER ROUNDUP
NATIONAL WEATHER SERVICE CHEYENNE WY
700 PM MDT TUE MAY 31 2016

NOTE:  "FAIR" INDICATES FEW OR NO CLOUDS BELOW 12,000 FEET
WITH NO SIGNIFICANT WEATHER AND/OR OBSTRUCTIONS TO VISIBILITY.

WYZ001-010200-
YELLOWSTONE NATIONAL PARK

CITY           SKY/WX    TMP DP  RH WIND       PRES   REMARKS
LK YELLOWSTONE   N/A     50  24  36 VRB3      30.23S
W YELLOWSTONE  NOT AVBL

$$
WYZ002>013-054>058-071-098>099-010200-
NORTHERN WYOMING

CITY           SKY/WX    TMP DP  RH WIND       PRES   REMARKS
JACKSON        NOT AVBL
CODY           FAIR      57  36  44 N12       30.13S
GREYBULL       FAIR      65  29  25 NW12      30.08R
WORLAND        CLOUDY    66  33  29 N8        30.08S
SHERIDAN       FAIR      59  40  49 NW20      30.12S
BUFFALO        FAIR      56  38  50 N22G32    30.14R
GILLETTE       FAIR      56  38  50 NW21      30.11R
HULETT         FAIR      52  43  71 W10G16    30.12S
NEWCASTLE      FAIR      55  36  47 NW24G30   30.10S

$$
WYZ014>020-022>026-101>103-010200-
CENTRAL WYOMING

CITY           SKY/WX    TMP DP  RH WIND       PRES   REMARKS
BIG PINEY      FAIR      64  26  23 N10       30.13S
PINEDALE       FAIR      61  25  25 NW13      30.14S
DUBOIS         FAIR      57  32  38 SE17G24   30.13S
LANDER         FAIR      63  33  32 NE3       30.09R
RIVERTON       FAIR      63  30  28 NE9       30.11S
CASPER         FAIR      59  35  40 NE15      30.12R
DOUGLAS          N/A    N/A N/A N/A MISG      30.12R

$$
WYZ021-027>030-104>119-010200-
SOUTHERN WYOMING

CITY           SKY/WX    TMP DP  RH WIND       PRES   REMARKS
EVANSTON       FAIR      64  35  34 NW9       30.14S
KEMMERER         N/A     63  28  27 W17       30.16R
FORT BRIDGER   CLEAR     66  34  30 NW13G21   30.16S
ROCK SPRINGS   PTSUNNY   64  29  26 E3        30.10S
DIXON          FAIR      66  33  28 N7        30.12S
RAWLINS        PTSUNNY   59  29  31 E12       30.14R
SARATOGA       FAIR      61  32  33 N10G16    30.15R
LARAMIE        CLOUDY    57  29  34 N12       30.16R
CHEYENNE       CLOUDY    58  40  51 NE5       30.13R
TORRINGTON     FAIR      65  34  31 N18       30.06R
PINE BLUFFS    FAIR      61  41  48 N3        30.11R

$$




USA.gov is the U.S. government's official web portal to all federal, state and local government web resources and services.